Precipitable_Water
0.51 0.53 0.52 0.51 0.33 0.25 0.21 0.24 0.27 0.28 0.31 0.34 0.34 0.31 0.29 0.30 0.28 0.28 0.52 0.61 0.67 0.72 0.85 0.97 1.08 1.11 1.12 1.14 1.12 1.13 1.15 1.17 1.18 1.22 1.21 1.22 1.25 1.22 1.22 1.25 1.29 1.37 1.41 1.39 1.29 1.21 1.19 1.16 1.16
0.47 0.46 0.48 0.34 0.25 0.19 0.18 0.25 0.26 0.28 0.32 0.34 0.34 0.32 0.32 0.28 0.34 0.38 0.48 0.63 0.71 0.71 0.86 0.96 1.05 1.08 1.10 1.10 1.07 1.07 1.06 1.08 1.09 1.12 1.07 1.07 1.10 1.08 1.12 1.19 1.22 1.30 1.29 1.26 1.19 1.09 1.06 1.04 1.01
0.44 0.41 0.33 0.27 0.21 0.19 0.20 0.26 0.27 0.29 0.33 0.30 0.29 0.33 0.28 0.28 0.36 0.39 0.55 0.63 0.73 0.72 0.87 0.98 1.04 1.07 1.06 1.07 1.05 1.03 1.03 1.02 1.03 1.06 1.06 1.09 1.08 1.03 1.01 1.03 1.07 1.15 1.13 1.07 1.02 0.95 0.94 0.89 0.83
0.40 0.38 0.33 0.21 0.19 0.21 0.21 0.23 0.26 0.26 0.31 0.29 0.28 0.25 0.30 0.33 0.34 0.43 0.53 0.62 0.70 0.75 0.88 1.01 1.00 1.04 1.06 1.07 1.05 1.02 0.98 1.00 1.00 1.06 1.14 1.08 1.01 0.94 0.91 0.91 0.99 1.03 1.02 0.96 0.92 0.84 0.80 0.74 0.64
0.37 0.29 0.21 0.18 0.17 0.18 0.19 0.22 0.26 0.26 0.27 0.26 0.26 0.23 0.24 0.32 0.36 0.39 0.47 0.57 0.64 0.73 0.83 0.97 0.99 0.98 1.00 1.02 1.01 0.99 1.01 1.01 1.02 1.16 1.12 0.99 0.91 0.90 0.87 0.85 0.89 0.90 0.87 0.83 0.77 0.71 0.61 0.50 0.45
0.28 0.25 0.17 0.16 0.17 0.19 0.21 0.25 0.25 0.25 0.26 0.25 0.24 0.22 0.25 0.32 0.30 0.35 0.44 0.53 0.64 0.70 0.81 0.87 0.93 0.97 0.98 0.96 0.94 0.94 0.99 1.00 1.08 1.14 1.06 0.92 0.85 0.85 0.82 0.80 0.82 0.81 0.77 0.69 0.64 0.53 0.44 0.39 0.36
0.25 0.22 0.17 0.16 0.16 0.18 0.22 0.24 0.23 0.23 0.22 0.23 0.26 0.19 0.24 0.29 0.33 0.37 0.44 0.53 0.61 0.69 0.75 0.83 0.90 0.90 0.93 0.95 0.94 0.93 0.96 1.00 1.04 1.08 1.00 0.92 0.83 0.80 0.77 0.73 0.73 0.70 0.65 0.62 0.56 0.47 0.42 0.40 0.37
0.29 0.23 0.18 0.19 0.17 0.17 0.24 0.23 0.24 0.22 0.20 0.26 0.26 0.20 0.22 0.33 0.36 0.40 0.46 0.50 0.58 0.66 0.73 0.78 0.86 0.90 0.91 0.94 0.95 0.99 1.04 1.01 1.01 1.03 0.97 0.91 0.81 0.77 0.72 0.68 0.66 0.64 0.61 0.56 0.51 0.48 0.46 0.44 0.40
0.34 0.21 0.19 0.20 0.19 0.20 0.26 0.23 0.27 0.27 0.21 0.22 0.25 0.24 0.27 0.31 0.35 0.36 0.40 0.44 0.50 0.58 0.68 0.76 0.80 0.87 0.89 0.90 0.92 0.95 0.99 1.03 1.03 1.04 0.99 0.94 0.83 0.75 0.69 0.61 0.62 0.62 0.62 0.56 0.52 0.49 0.46 0.41 0.36
0.27 0.22 0.21 0.25 0.22 0.21 0.23 0.24 0.24 0.23 0.20 0.20 0.24 0.28 0.31 0.29 0.29 0.29 0.32 0.35 0.44 0.49 0.57 0.70 0.76 0.79 0.85 0.88 0.90 0.88 0.87 0.99 1.01 1.02 1.01 0.96 0.88 0.76 0.66 0.62 0.62 0.64 0.60 0.56 0.53 0.49 0.43 0.38 0.36
0.32 0.22 0.26 0.27 0.26 0.26 0.22 0.21 0.26 0.25 0.21 0.21 0.20 0.22 0.25 0.26 0.26 0.27 0.27 0.30 0.35 0.45 0.55 0.62 0.69 0.76 0.79 0.81 0.83 0.86 0.85 0.86 0.93 0.96 0.98 0.91 0.85 0.72 0.63 0.61 0.61 0.64 0.60 0.54 0.52 0.44 0.36 0.37 0.36
0.27 0.30 0.31 0.30 0.31 0.29 0.24 0.26 0.26 0.28 0.26 0.28 0.28 0.28 0.27 0.26 0.25 0.26 0.26 0.28 0.31 0.37 0.43 0.55 0.63 0.67 0.72 0.77 0.79 0.81 0.81 0.84 0.86 0.89 0.93 0.88 0.79 0.67 0.59 0.55 0.57 0.61 0.56 0.51 0.47 0.40 0.40 0.39 0.38
0.31 0.31 0.32 0.34 0.34 0.34 0.33 0.28 0.28 0.28 0.30 0.31 0.30 0.29 0.29 0.29 0.30 0.31 0.31 0.31 0.31 0.31 0.37 0.46 0.58 0.62 0.67 0.70 0.73 0.74 0.77 0.81 0.83 0.88 0.90 0.85 0.74 0.62 0.55 0.53 0.56 0.59 0.56 0.51 0.44 0.38 0.39 0.39 0.38
0.34 0.34 0.34 0.34 0.34 0.35 0.32 0.30 0.32 0.31 0.34 0.33 0.32 0.30 0.30 0.30 0.31 0.31 0.33 0.33 0.33 0.34 0.35 0.42 0.50 0.59 0.64 0.67 0.70 0.69 0.75 0.80 0.82 0.82 0.81 0.79 0.71 0.62 0.53 0.50 0.51 0.53 0.51 0.46 0.38 0.36 0.36 0.37 0.38
0.36 0.30 0.33 0.33 0.34 0.35 0.35 0.27 0.29 0.33 0.33 0.31 0.32 0.33 0.33 0.32 0.32 0.32 0.32 0.33 0.35 0.37 0.41 0.44 0.49 0.56 0.59 0.61 0.67 0.71 0.72 0.75 0.77 0.78 0.78 0.74 0.71 0.63 0.54 0.49 0.48 0.48 0.47 0.39 0.35 0.35 0.36 0.36 0.37
0.33 0.33 0.27 0.33 0.34 0.36 0.35 0.27 0.32 0.35 0.34 0.32 0.32 0.32 0.33 0.34 0.35 0.37 0.39 0.39 0.40 0.41 0.41 0.44 0.50 0.57 0.63 0.64 0.66 0.69 0.72 0.73 0.75 0.77 0.75 0.71 0.68 0.63 0.54 0.47 0.46 0.45 0.40 0.34 0.32 0.32 0.32 0.33 0.34
0.34 0.27 0.28 0.29 0.35 0.35 0.34 0.29 0.35 0.37 0.35 0.33 0.33 0.33 0.33 0.35 0.38 0.39 0.40 0.41 0.41 0.42 0.43 0.44 0.47 0.53 0.63 0.70 0.74 0.75 0.74 0.74 0.76 0.78 0.76 0.72 0.68 0.63 0.54 0.48 0.45 0.42 0.36 0.32 0.30 0.29 0.30 0.31 0.32
0.30 0.29 0.30 0.29 0.35 0.36 0.32 0.32 0.34 0.36 0.36 0.35 0.35 0.34 0.34 0.36 0.37 0.40 0.42 0.43 0.44 0.45 0.46 0.44 0.44 0.46 0.58 0.66 0.71 0.76 0.77 0.77 0.77 0.76 0.75 0.75 0.71 0.67 0.57 0.51 0.46 0.41 0.35 0.32 0.30 0.29 0.30 0.31 0.31
0.33 0.31 0.29 0.32 0.38 0.35 0.32 0.31 0.34 0.38 0.36 0.36 0.37 0.35 0.35 0.35 0.40 0.42 0.42 0.43 0.43 0.44 0.45 0.45 0.45 0.47 0.50 0.56 0.59 0.66 0.66 0.71 0.73 0.75 0.76 0.74 0.71 0.68 0.62 0.54 0.49 0.42 0.37 0.34 0.32 0.31 0.29 0.30 0.31
0.34 0.31 0.31 0.36 0.38 0.35 0.34 0.33 0.37 0.38 0.38 0.37 0.34 0.35 0.37 0.38 0.40 0.42 0.44 0.45 0.44 0.44 0.45 0.45 0.46 0.47 0.49 0.59 0.63 0.63 0.64 0.70 0.72 0.74 0.73 0.74 0.71 0.66 0.63 0.57 0.52 0.47 0.40 0.37 0.34 0.32 0.31 0.31 0.32
0.34 0.34 0.35 0.34 0.37 0.39 0.36 0.32 0.36 0.40 0.39 0.36 0.36 0.38 0.39 0.39 0.41 0.44 0.45 0.45 0.45 0.44 0.44 0.44 0.45 0.46 0.49 0.56 0.60 0.63 0.66 0.60 0.60 0.65 0.68 0.72 0.74 0.70 0.66 0.62 0.56 0.52 0.46 0.39 0.37 0.35 0.33 0.31 0.35
0.33 0.41 0.39 0.36 0.35 0.30 0.38 0.24 0.32 0.34 0.34 0.33 0.36 0.39 0.40 0.42 0.44 0.45 0.45 0.44 0.45 0.46 0.47 0.45 0.45 0.45 0.47 0.51 0.52 0.54 0.54 0.49 0.53 0.54 0.60 0.63 0.67 0.69 0.69 0.68 0.65 0.59 0.53 0.46 0.42 0.39 0.36 0.35 0.32
0.37 0.42 0.39 0.37 0.34 0.32 0.32 0.27 0.28 0.32 0.30 0.31 0.37 0.38 0.42 0.44 0.44 0.45 0.46 0.46 0.47 0.48 0.48 0.49 0.48 0.47 0.46 0.48 0.48 0.48 0.47 0.50 0.53 0.53 0.50 0.53 0.56 0.59 0.63 0.63 0.65 0.62 0.60 0.55 0.49 0.44 0.39 0.36 0.34
0.41 0.37 0.37 0.37 0.34 0.24 0.29 0.28 0.24 0.27 0.29 0.31 0.36 0.39 0.42 0.44 0.44 0.45 0.47 0.47 0.48 0.50 0.50 0.50 0.50 0.49 0.50 0.49 0.48 0.46 0.45 0.46 0.46 0.48 0.47 0.49 0.51 0.54 0.55 0.59 0.59 0.62 0.62 0.61 0.57 0.50 0.43 0.38 0.36
0.40 0.34 0.26 0.25 0.26 0.21 0.31 0.27 0.26 0.31 0.33 0.34 0.35 0.38 0.41 0.43 0.44 0.44 0.44 0.45 0.48 0.50 0.51 0.50 0.49 0.50 0.52 0.52 0.50 0.50 0.49 0.48 0.46 0.46 0.47 0.47 0.48 0.50 0.51 0.53 0.54 0.56 0.59 0.62 0.60 0.56 0.49 0.41 0.37
0.40 0.37 0.30 0.21 0.20 0.23 0.32 0.24 0.27 0.36 0.39 0.40 0.39 0.38 0.40 0.40 0.41 0.39 0.41 0.43 0.45 0.47 0.47 0.48 0.47 0.47 0.51 0.53 0.53 0.54 0.53 0.53 0.52 0.52 0.50 0.49 0.49 0.50 0.52 0.51 0.51 0.53 0.54 0.56 0.59 0.58 0.53 0.47 0.42
0.37 0.30 0.38 0.30 0.30 0.27 0.25 0.30 0.32 0.34 0.35 0.35 0.36 0.36 0.36 0.38 0.40 0.41 0.44 0.46 0.45 0.45 0.44 0.44 0.44 0.47 0.49 0.50 0.53 0.54 0.55 0.54 0.55 0.55 0.55 0.54 0.53 0.51 0.51 0.51 0.52 0.52 0.52 0.52 0.53 0.54 0.53 0.49 0.44
0.40 0.45 0.32 0.38 0.25 0.23 0.24 0.22 0.18 0.23 0.32 0.34 0.34 0.34 0.36 0.38 0.39 0.40 0.41 0.43 0.42 0.41 0.41 0.40 0.38 0.37 0.39 0.40 0.44 0.48 0.50 0.52 0.52 0.54 0.55 0.57 0.58 0.56 0.54 0.53 0.52 0.53 0.53 0.53 0.52 0.51 0.52 0.50 0.47
0.32 0.29 0.29 0.28 0.25 0.19 0.17 0.16 0.24 0.30 0.34 0.34 0.36 0.38 0.38 0.40 0.39 0.36 0.38 0.38 0.40 0.35 0.34 0.34 0.33 0.33 0.33 0.35 0.36 0.35 0.37 0.40 0.43 0.46 0.50 0.53 0.56 0.58 0.57 0.57 0.56 0.55 0.53 0.54 0.54 0.52 0.51 0.50 0.49
0.37 0.32 0.32 0.26 0.24 0.27 0.27 0.26 0.33 0.33 0.34 0.35 0.34 0.36 0.39 0.40 0.38 0.37 0.40 0.35 0.33 0.32 0.31 0.29 0.26 0.26 0.27 0.28 0.28 0.30 0.31 0.31 0.32 0.34 0.39 0.46 0.50 0.52 0.55 0.58 0.58 0.57 0.58 0.57 0.53 0.52 0.52 0.51 0.49
Wind_Speed
3 4 5 4 3 3 3 4 5 6 5 7 7 7 8 7 6 4 5 5 4 5 7 10 10 10 9 9 9 9 9 10 10 10 9 9 9 9 8 8 9 8 7 7 6 6 6 6 5
3 4 4 4 3 4 5 4 4 6 8 8 7 6 6 6 6 5 5 4 4 6 8 10 11 11 11 11 10 9 9 9 9 10 10 10 10 9 9 8 8 9 9 8 8 8 8 7 7
4 4 4 4 4 6 5 4 6 8 8 7 7 6 6 6 6 6 6 4 3 5 8 10 12 12 13 12 12 11 11 10 10 10 10 10 10 10 10 10 10 10 10 10 9 9 9 9 9
4 4 4 4 6 7 6 9 9 9 6 6 7 8 6 7 7 6 6 4 4 5 8 9 12 14 14 14 14 14 13 13 12 12 11 10 9 9 9 10 11 11 11 11 10 10 10 10 10
5 6 6 6 8 7 9 10 9 9 8 8 8 8 9 7 6 7 7 6 5 5 7 9 11 14 15 16 16 16 16 15 15 14 13 12 11 11 10 10 10 11 11 11 11 10 10 10 10
7 7 8 9 9 10 9 8 9 9 9 9 10 12 10 7 9 9 9 8 8 7 8 9 11 13 14 16 17 18 18 17 17 17 16 14 13 13 12 12 12 11 11 11 11 11 10 10 10
9 10 12 12 13 12 10 10 10 11 12 13 11 13 12 10 10 12 11 11 10 10 10 11 11 13 14 15 17 18 19 19 19 19 18 17 16 16 15 14 14 13 13 13 12 12 12 11 11
11 11 12 11 12 15 10 12 13 14 16 13 14 11 12 11 13 14 13 13 13 13 13 13 13 14 15 16 16 17 18 19 20 20 20 20 19 18 18 17 16 16 15 15 14 14 13 13 13
12 12 13 14 14 12 11 14 13 16 17 18 15 17 17 16 16 16 15 15 15 15 15 16 17 17 17 18 18 18 19 19 20 21 21 21 20 20 20 20 19 18 18 17 16 16 15 15 14
13 14 16 15 16 18 18 19 19 19 19 20 19 19 18 18 18 19 19 19 18 19 19 19 20 20 21 21 21 21 21 21 21 21 21 21 21 21 21 21 21 20 20 19 19 18 18 18 17
14 17 19 19 21 21 22 23 22 20 21 21 21 21 21 21 20 20 21 21 21 21 21 21 22 22 23 23 24 23 24 24 24 24 23 23 22 22 21 21 22 21 21 21 21 20 20 20 19
19 21 22 23 22 21 24 24 23 22 25 25 25 24 24 23 23 23 23 22 23 23 23 23 23 23 23 24 26 27 26 26 26 26 26 24 24 23 23 23 23 22 22 22 22 22 21 21 21
23 23 23 23 24 25 26 26 27 26 27 26 25 24 24 25 25 25 25 25 25 25 25 25 24 25 24 24 25 27 28 28 28 28 28 28 27 26 25 25 25 24 24 23 23 23 22 22 21
22 24 26 26 25 25 26 26 25 26 26 26 26 27 26 26 26 27 27 27 28 27 27 27 27 27 27 27 26 26 28 29 30 30 30 31 30 29 28 28 27 27 27 26 25 24 24 23 22
23 26 26 27 27 24 24 25 22 24 23 25 27 28 29 29 29 29 29 29 29 29 29 30 30 30 30 30 29 29 29 30 30 31 31 32 32 31 31 30 30 30 29 28 28 26 25 25 24
24 26 24 20 20 21 22 28 23 23 28 30 30 28 27 27 27 26 25 25 26 27 28 29 29 31 32 32 32 31 31 31 31 32 32 33 33 33 32 32 32 32 32 31 30 29 28 27 26
25 26 27 25 22 21 22 27 26 29 29 29 27 26 25 23 21 21 21 22 22 23 24 25 27 29 30 32 33 33 33 33 33 33 33 34 35 35 34 33 34 34 33 33 33 32 31 30 29
28 30 30 32 29 24 31 33 30 28 29 28 26 23 21 18 16 17 18 18 17 18 19 21 22 24 26 28 30 32 34 35 35 35 35 36 36 37 36 35 35 34 34 34 34 34 33 33 31
32 33 33 33 30 31 30 30 31 31 27 25 22 20 15 13 13 14 16 17 17 18 19 20 20 21 22 24 27 30 32 33 35 37 37 38 37 38 38 37 36 36 36 36 36 35 35 34 33
31 32 32 31 26 25 30 32 32 28 28 22 19 14 14 14 15 15 16 17 19 20 20 19 19 19 20 22 23 25 28 30 32 34 36 38 39 39 39 39 39 39 39 39 38 38 36 36 36
29 29 31 32 30 30 30 31 28 24 26 17 13 14 14 14 15 16 17 18 19 19 19 18 18 18 20 21 23 24 26 28 29 32 34 36 39 40 41 42 42 42 42 41 41 40 40 38 38
30 28 30 31 28 28 25 31 29 23 17 15 14 14 14 16 16 17 18 19 19 19 18 18 18 19 21 22 24 26 27 28 29 31 32 35 37 39 42 43 45 45 44 44 43 43 42 41 39
27 26 27 28 31 32 29 27 25 24 21 17 17 17 17 17 18 19 20 20 19 19 19 19 19 20 22 24 25 26 28 30 31 31 33 34 36 38 40 42 44 45 45 46 46 45 45 44 42
27 30 31 30 29 31 32 27 26 20 19 19 19 19 19 20 21 22 23 24 23 23 22 22 23 24 25 24 24 25 27 29 31 32 33 35 36 38 39 41 43 45 46 47 47 47 47 47 46
28 30 30 29 28 33 28 27 32 25 23 24 23 24 25 26 26 27 28 28 28 28 29 30 31 30 28 27 26 26 27 28 30 31 32 34 35 37 39 41 43 44 46 47 48 49 49 49 49
29 29 28 30 33 34 26 32 31 24 25 26 27 29 31 31 32 30 30 31 31 32 33 33 34 33 32 32 31 30 30 30 31 32 33 35 35 37 38 41 43 44 46 48 49 50 50 50 51
24 27 26 29 34 34 38 40 39 29 29 30 30 31 31 30 30 32 33 33 35 36 36 37 37 36 36 36 36 35 34 34 33 33 34 35 37 38 39 41 42 44 46 47 49 51 51 52 52
29 28 28 25 23 26 33 40 40 37 32 31 30 31 33 34 34 36 36 36 36 36 37 38 38 38 38 38 38 38 37 37 37 37 36 36 37 38 39 40 41 43 45 46 48 50 52 53 54
29 29 31 33 33 35 38 39 37 30 30 32 33 34 35 36 36 37 37 38 39 39 39 40 39 39 38 38 38 38 38 38 38 38 38 38 38 39 39 40 40 42 44 45 47 49 51 53 54
34 35 35 33 31 32 33 36 38 36 37 37 37 38 38 38 37 38 39 40 41 41 40 40 39 39 39 39 39 39 39 39 39 40 41 41 41 41 40 41 41 42 43 44 46 48 49 51 53
Wind_Direction
346 352 356 5 6 26 3 37 9 4 5 3 351 346 346 336 338 349 318 289 273 224 204 199 201 200 199 197 198 200 203 207 211 213 218 222 225 228 233 230 225 218 218 218 223 230 229 228 225
344 345 346 349 347 339 46 23 6 5 347 338 337 335 333 341 348 331 330 317 266 228 212 209 210 211 211 210 210 208 209 212 216 221 225 227 227 229 230 227 224 223 226 230 234 237 235 235 234
335 334 334 333 335 347 349 354 336 330 330 327 331 333 332 340 335 332 330 315 284 236 224 222 220 221 220 220 220 219 221 222 223 224 224 225 226 230 232 231 231 230 234 238 239 238 240 243 244
325 319 312 305 317 319 303 314 323 318 321 320 319 310 316 319 323 331 327 311 287 250 233 230 228 227 227 227 227 228 228 228 229 227 225 222 227 230 232 233 234 234 236 239 241 243 245 246 247
313 309 298 297 302 303 308 305 307 307 306 307 310 309 308 311 310 317 315 302 286 263 246 239 235 231 231 232 233 233 233 233 232 227 226 231 234 236 237 238 236 236 237 238 241 243 246 246 247
297 304 291 296 310 305 305 309 306 301 304 304 302 300 300 293 298 305 304 293 282 269 257 249 242 236 236 236 236 236 236 236 233 230 233 235 238 240 240 240 237 237 238 239 240 243 243 244 245
298 294 293 298 300 303 297 301 297 306 301 299 299 297 294 285 293 295 293 287 277 270 261 254 248 241 240 240 239 238 238 237 233 233 236 239 242 243 243 242 240 240 241 241 242 243 244 245 246
294 294 291 291 299 301 294 296 295 295 297 295 296 292 296 296 292 291 287 282 275 268 262 257 252 247 244 243 241 239 238 236 235 236 238 240 244 244 245 244 243 244 244 244 244 244 246 247 248
291 287 287 291 296 299 295 296 296 295 290 291 285 287 291 291 287 285 282 278 274 269 264 259 255 251 248 246 244 241 240 239 238 239 241 242 245 245 245 245 245 245 245 245 245 246 247 248 250
283 282 291 293 293 291 294 294 294 293 290 289 290 289 287 288 283 282 279 276 272 269 264 260 256 254 251 249 246 244 243 241 241 241 242 243 245 246 246 246 245 245 245 246 247 248 248 250 252
283 283 291 292 290 290 289 291 290 286 288 289 291 292 293 291 285 281 279 276 274 270 266 261 258 256 254 252 249 248 245 244 244 244 243 244 246 246 245 246 246 246 246 248 248 250 251 252 254
284 284 287 289 290 289 287 289 288 284 286 288 289 289 288 286 285 282 279 277 275 270 267 263 260 258 257 255 251 249 248 246 246 245 245 245 246 247 246 247 246 247 247 249 250 251 252 253 255
281 286 289 289 288 286 288 286 287 286 287 287 288 288 287 285 283 280 277 276 276 272 268 264 261 259 258 256 255 251 249 248 247 247 246 246 247 249 248 248 248 248 248 249 250 251 252 254 256
293 291 289 289 287 287 286 287 290 288 286 289 289 289 287 285 283 282 279 277 275 273 269 265 262 260 258 257 255 253 250 249 248 248 248 247 248 249 250 250 249 249 249 250 251 252 252 254 256
288 290 291 289 286 283 290 286 284 291 295 292 288 288 287 285 284 282 281 279 277 274 270 267 263 260 258 256 256 254 252 250 251 250 249 248 248 249 250 250 250 250 250 250 250 252 253 255 256
287 286 288 289 294 288 285 289 295 297 295 293 290 289 288 287 286 286 285 283 280 276 273 269 266 262 259 257 256 254 253 252 252 251 250 249 249 249 250 251 251 250 249 250 251 251 253 255 256
278 282 286 292 298 286 280 292 294 296 293 292 291 290 288 288 289 292 292 291 287 284 280 275 269 265 261 258 256 255 253 253 252 252 251 250 249 249 250 252 251 250 250 250 251 251 252 253 255
284 286 287 292 294 274 290 290 294 294 292 291 291 289 286 287 291 296 298 298 295 294 291 284 276 270 265 261 258 255 254 253 253 253 253 251 251 250 250 251 251 250 250 250 250 251 252 253 255
280 284 285 287 290 290 289 291 294 294 294 291 290 286 283 281 290 296 300 302 302 301 299 294 285 276 271 266 262 258 256 255 254 254 253 252 251 251 250 251 251 250 250 250 250 251 251 252 253
279 280 283 287 290 288 289 292 293 289 291 293 289 279 281 285 290 296 300 303 304 303 302 298 293 284 277 271 270 264 261 259 258 256 255 252 251 251 251 251 251 251 251 250 250 250 251 253 252
273 276 281 286 293 288 288 288 294 287 285 291 279 283 284 286 290 297 301 304 304 304 303 301 297 291 286 278 274 270 267 266 264 261 258 255 254 253 253 252 253 253 252 252 251 250 250 253 252
275 279 283 285 286 289 293 291 294 289 277 276 288 290 289 288 290 293 297 303 304 303 300 301 300 297 291 286 279 274 271 270 268 266 264 260 257 256 255 254 254 253 253 252 252 251 251 251 252
279 284 281 282 281 286 280 283 284 286 274 268 283 285 291 293 295 296 297 298 300 298 298 296 299 300 297 294 285 280 276 273 271 269 268 264 261 260 259 256 255 254 252 252 251 251 250 251 252
281 280 278 279 281 276 281 270 285 280 276 270 277 281 285 290 292 294 294 295 296 296 295 294 295 299 299 296 292 288 283 279 275 273 270 268 265 263 261 259 257 255 254 252 252 251 250 251 252
274 278 282 275 270 274 283 273 273 277 277 274 273 276 282 285 286 290 290 291 291 290 292 293 295 295 294 292 292 290 288 284 281 278 274 272 270 266 263 262 260 258 256 254 252 252 251 251 251
280 274 272 280 279 281 273 272 279 280 275 275 275 277 279 282 286 286 287 288 288 290 291 292 293 292 290 290 290 289 288 285 282 280 278 275 273 271 268 265 262 260 258 256 254 253 252 251 251
278 274 284 282 279 277 273 274 276 275 277 276 274 277 280 282 284 286 288 287 288 289 289 290 289 287 287 286 286 285 285 285 284 283 280 276 275 273 271 268 265 262 260 257 255 253 252 251 251
275 279 280 275 275 272 274 280 282 281 275 275 276 278 281 282 284 285 287 287 288 289 290 289 288 287 286 285 284 283 283 282 282 281 281 280 278 276 273 270 267 264 261 258 256 254 253 251 251
276 276 271 275 272 276 279 278 286 284 279 276 277 279 281 283 285 286 286 287 288 288 288 288 288 288 287 285 284 283 282 282 281 280 280 279 278 278 274 271 268 266 264 261 257 256 255 253 252
279 277 275 273 276 272 275 274 282 283 279 279 277 278 278 281 284 284 286 287 287 288 289 288 288 287 286 285 285 283 282 281 281 281 280 278 278 277 276 273 270 268 266 263 260 257 256 254 252